User: anonymous   Login
Location: Unspecified
(0.0000°N, 0.0000°E)
Time: 17:04:33
(UTC+00:00)
Language:

HUMSAT D - Orbit

View from above orbital plane
View from above orbital plane
View from above satellite
View from above satellite

Ground track
Ground track

The orbit data is extracted from the following two-line orbital elements,

1 39433U 13066T   17264.72835115  .00000583  00000-0  63310-4 0  9993
2 39433  97.6432 324.9526 0029711 255.2465 104.5461 14.91548043208409
Epoch (UTC): 21 September 2017 17:28:49
Eccentricity: 0.0029711
inclination: 97.6432°
perigee height: 572 km
apogee height: 614 km
right ascension of ascending node: 324.9526°
argument of perigee: 255.2465°
revolutions per day: 14.91548043
mean anomaly at epoch: 104.5461°
orbit number at epoch: 20840

The dashed part of the orbit path shows where the satellite is in the earth's shadow,  

DLR